EW2112 Weather Reports


Display with metric or nautical units.
time (UTC)temp
F
wind
direction
speed
MPH
gust
MPH
rain 1hr
in
rain 24hr
in
rain mn
in
humidity
%
barometer
mb
20260503034529 78 288 1.0 10.0 0.00 0.00 0.00 53 1014.6
20260503033030 78 355 3.0 12.0 0.00 0.00 0.00 54 1014.9
20260503031525 78 319 4.0 8.0 0.00 0.00 0.00 54 1015.1
20260503030026 78 21 3.0 8.0 0.00 0.00 0.00 55 1015.4
20260503024519 77 355 1.0 6.0 0.00 0.00 0.00 57 1015.6
20260503023016 76 268 2.0 6.0 0.00 0.00 0.00 60 1015.9
20260503021515 76 5 3.0 8.0 0.00 0.00 0.00 61 1016.1
20260503020010 76 279 3.0 8.0 0.00 0.00 0.00 62 1016.6
20260503014508 75 314 0.0 5.0 0.00 0.00 0.00 62 1017.0
20260503013006 75 24 2.0 7.0 0.00 0.00 0.00 64 1017.2
20260503011500 74 259 3.0 8.0 0.00 0.00 0.00 64 1017.5
20260503010057 73 333 2.0 8.0 0.00 0.00 0.00 67 1017.8
20260503004555 72 294 2.0 5.0 0.00 0.00 0.00 68 1018.0
20260503003052 72 292 3.0 7.0 0.00 0.00 0.00 69 1018.3
20260503001548 70 305 2.0 8.0 0.00 0.00 0.00 72 1018.3
20260503000047 70 31 3.0 8.0 0.00 0.00 0.00 74 1018.3
20260502234550 69 321 0.0 5.0 0.00 0.00 0.00 77 1018.4
20260502233038 68 30 2.0 6.0 0.00 0.00 0.00 79 1018.6
20260502231535 67 347 2.0 5.0 0.00 0.00 0.00 80 1018.9
20260502230031 65 316 1.0 4.0 0.00 0.00 0.00 85 1018.9
20260502224528 63 360 0.0 1.0 0.00 0.00 0.00 90 1018.9
20260502223024 62 360 0.0 1.0 0.00 0.00 0.00 93 1018.9
20260502221520 61 360 0.0 2.0 0.00 0.00 0.00 95 1018.9
20260502220018 60 9 0.0 0.0 0.00 0.00 0.00 95 1018.8
20260502214532 59 9 0.0 0.0 0.00 0.00 0.00 95 1018.5
20260502213013 58 9 0.0 0.0 0.00 0.00 0.00 94 1018.4
20260502211516 58 9 0.0 0.0 0.00 0.00 0.00 94 1018.3
20260502210020 57 9 0.0 0.0 0.00 0.00 0.00 94 1018.3
20260502204509 57 9 0.0 0.0 0.00 0.00 0.00 94 1018.0
20260502203002 57 69 0.0 0.0 0.00 0.00 0.00 94 1018.0
20260502201502 57 69 0.0 1.0 0.00 0.00 0.00 93 1018.2
20260502200100 57 69 0.0 0.0 0.00 0.00 0.00 93 1018.3
20260502194559 57 69 0.0 0.0 0.00 0.00 0.00 93 1018.1
20260502193059 57 69 0.0 0.0 0.00 0.00 0.00 93 1017.9
20260502191557 58 69 0.0 0.0 0.00 0.00 0.00 93 1017.8
20260502190056 58 69 0.0 0.0 0.00 0.00 0.00 93 1018.0
20260502184603 58 69 0.0 0.0 0.00 0.01 0.00 93 1017.7
20260502183054 58 69 0.0 0.0 0.00 0.01 0.00 93 1017.8
20260502181553 58 69 0.0 0.0 0.00 0.01 0.00 93 1017.9
20260502180105 58 69 0.0 0.0 0.00 0.01 0.00 93 1018.0
20260502163044 59 69 0.0 0.0 0.00 0.01 0.00 91 1018.3
20260502161542 59 69 0.0 0.0 0.00 0.01 0.00 92 1018.4
20260502151535 60 69 0.0 0.0 0.00 0.01 0.00 91 1018.8
20260502123025 65 69 0.0 0.0 0.00 0.01 0.01 83 1019.4
20260502121536 66 69 0.0 0.0 0.00 0.01 0.01 82 1019.5
20260502114524 66 69 0.0 2.0 0.00 0.01 0.01 81 1019.8
20260502113024 66 69 0.0 3.0 0.00 0.01 0.01 80 1019.6
20260502111525 66 69 0.0 4.0 0.00 0.01 0.01 80 1019.5
20260502110029 66 67 0.0 2.0 0.00 0.01 0.01 80 1019.6
20260502104523 67 67 1.0 3.0 0.00 0.01 0.01 79 1019.4
20260502103023 67 67 0.0 2.0 0.00 0.01 0.01 78 1019.7
20260502101523 68 67 0.0 4.0 0.00 0.01 0.01 77 1019.4
20260502091519 69 31 1.0 6.0 0.00 0.01 0.01 75 1018.7
20260502071516 71 30 1.0 6.0 0.00 0.01 0.01 76 1018.2
20260502070021 72 88 2.0 9.0 0.00 0.01 0.01 74 1018.2
20260502064516 73 72 2.0 8.0 0.00 0.01 0.01 72 1018.3
20260502063024 73 70 2.0 10.0 0.00 0.01 0.01 71 1018.2
20260502061512 73 42 2.0 9.0 0.00 0.01 0.01 70 1018.3
20260502060018 73 88 1.0 9.0 0.00 0.01 0.01 70 1018.3
20260502054522 74 84 2.0 8.0 0.00 0.01 0.01 68 1018.4
20260502053009 74 94 3.0 7.0 0.00 0.01 0.01 67 1018.3
20260502051508 74 52 5.0 10.0 0.00 0.01 0.01 66 1018.4
20260502050010 75 32 2.0 9.0 0.00 0.01 0.01 65 1018.5
20260502044509 75 29 4.0 10.0 0.00 0.01 0.01 64 1018.4
20260502043008 76 59 2.0 10.0 0.00 0.01 0.01 64 1018.4
20260502041507 77 55 3.0 10.0 0.00 0.01 0.01 63 1018.5
20260502040003 76 34 4.0 11.0 0.00 0.01 0.01 64 1018.6